KA0QOK Weather Reports


Display with metric or nautical units.
time (UTC)temp
F
wind
direction
speed
MPH
gust
MPH
rain 1hr
in
rain 24hr
in
rain mn
in
humidity
%
barometer
mb
20240305011526 32 355 0.0 0.0 0.00 0.00 0.00 55 1020.4
20240305010012 33 355 0.0 0.0 0.00 0.00 0.00 53 1020.0
20240305004521 34 355 0.0 1.0 0.00 0.00 0.00 52 1019.9
20240305003009 35 355 0.0 2.0 0.00 0.00 0.00 51 1019.7
20240305001545 36 355 0.0 5.0 0.00 0.00 0.00 50 1019.4
20240305000046 36 355 2.0 8.0 0.00 0.00 0.00 49 1019.2
20240304234536 37 319 4.0 11.0 0.00 0.00 0.00 48 1019.3
20240304233034 38 330 5.0 15.0 0.00 0.00 0.00 48 1019.5
20240304231533 37 312 6.0 11.0 0.00 0.00 0.00 48 1019.2
20240304230031 37 337 2.0 15.0 0.00 0.00 0.00 48 1019.3
20240304224540 37 355 6.0 13.0 0.00 0.00 0.00 48 1019.0
20240304223048 37 360 4.0 15.0 0.00 0.00 0.00 48 1019.0
20240304221524 37 5 4.0 13.0 0.00 0.00 0.00 47 1018.8
20240304220039 37 350 3.0 12.0 0.00 0.00 0.00 47 1018.9
20240304214535 37 355 7.0 14.0 0.00 0.00 0.00 46 1018.7
20240304213029 38 331 4.0 12.0 0.00 0.00 0.00 46 1018.8
20240304211519 37 343 0.0 9.0 0.00 0.00 0.00 46 1018.5
20240304210018 38 343 5.0 10.0 0.00 0.00 0.00 45 1018.6
20240304204516 38 340 1.0 10.0 0.00 0.00 0.00 46 1018.5
20240304203016 37 5 0.0 9.0 0.00 0.00 0.00 48 1018.2
20240304201513 37 34 3.0 12.0 0.00 0.00 0.00 47 1018.0
20240304200011 36 340 6.0 13.0 0.00 0.00 0.00 47 1018.3
20240304194517 36 31 5.0 11.0 0.00 0.00 0.00 47 1018.3
20240304193021 36 355 6.0 11.0 0.00 0.00 0.00 47 1018.3
20240304191512 36 321 2.0 8.0 0.00 0.00 0.00 48 1018.6
20240304190008 35 19 0.0 12.0 0.00 0.00 0.00 52 1018.5
20240304184506 35 5 2.0 9.0 0.00 0.00 0.00 53 1018.6
20240304183006 34 360 2.0 11.0 0.00 0.00 0.00 53 1018.8
20240304181503 34 360 3.0 6.0 0.00 0.00 0.00 54 1019.2
20240304180002 34 344 1.0 4.0 0.00 0.00 0.00 54 1019.3
20240304174600 34 345 4.0 9.0 0.00 0.00 0.00 54 1019.2
20240304173100 34 355 4.0 10.0 0.00 0.00 0.00 54 1018.9
20240304171605 34 334 4.0 11.0 0.00 0.00 0.00 56 1018.5
20240304170102 34 298 6.0 17.0 0.00 0.00 0.00 56 1018.5
20240304164553 34 336 4.0 14.0 0.00 0.00 0.00 57 1018.4
20240304163052 34 312 5.0 11.0 0.00 0.00 0.00 57 1018.3
20240304161549 34 333 2.0 11.0 0.00 0.00 0.00 56 1017.9
20240304160053 34 292 5.0 11.0 0.00 0.00 0.00 60 1017.9
20240304154547 34 312 4.0 10.0 0.00 0.00 0.00 59 1018.1
20240304153046 34 302 0.0 12.0 0.00 0.00 0.00 62 1018.3
20240304151542 34 258 3.0 11.0 0.00 0.00 0.00 63 1018.2
20240304150045 34 232 4.0 10.0 0.00 0.00 0.00 64 1018.3
20240304144541 34 198 3.0 8.0 0.00 0.00 0.00 64 1018.4
20240304143040 34 213 2.0 10.0 0.00 0.00 0.00 64 1018.3
20240304141538 34 211 5.0 11.0 0.00 0.00 0.00 64 1018.1
20240304140006 34 196 4.0 14.0 0.00 0.00 0.00 64 1018.0
20240304134503 0 0.0 0.0 0.00 0.00 0.00 1017.9
20240304133056 0 0.0 0.0 0.00 0.00 0.00 1017.6
20240304131552 0 0.0 0.0 0.00 0.00 0.00 1017.5
20240304130048 34 234 3.0 15.0 0.00 0.00 0.00 66 1017.0
20240304124547 34 227 6.0 13.0 0.00 0.00 0.00 65 1016.7
20240304123041 34 231 7.0 15.0 0.00 0.00 0.00 65 1016.2
20240304121538 34 229 2.0 8.0 0.00 0.00 0.00 66 1015.6
20240304120049 34 248 4.0 13.0 0.00 0.00 0.00 67 1015.1
20240304114544 35 254 4.0 12.0 0.00 0.00 0.00 67 1015.2
20240304113008 35 180 4.0 7.0 0.00 0.00 0.00 68 1015.4
20240304111504 35 177 3.0 13.0 0.00 0.00 0.00 68 1015.4
20240304110059 35 173 4.0 13.0 0.00 0.00 0.00 68 1015.0
20240304104600 35 178 6.0 11.0 0.00 0.00 0.00 68 1014.7
20240304103056 35 284 4.0 11.0 0.00 0.00 0.00 68 1013.6
20240304101552 35 225 4.0 11.0 0.00 0.00 0.00 69 1013.9
20240304100146 35 200 4.0 10.0 0.00 0.00 0.00 69 1013.6
20240304094545 35 196 3.0 8.0 0.00 0.00 0.00 70 1013.5
20240304093044 35 196 1.0 8.0 0.00 0.00 0.00 70 1013.3
20240304091546 35 192 2.0 10.0 0.00 0.00 0.00 69 1012.8
20240304090039 34 185 2.0 10.0 0.00 0.00 0.00 70 1012.9
20240304084658 34 180 2.0 10.0 0.00 0.00 0.00 71 1013.0
20240304083032 33 222 4.0 8.0 0.00 0.00 0.00 72 1012.5
20240304081529 33 262 0.0 7.0 0.00 0.00 0.00 72 1011.2
20240304080058 34 263 3.0 11.0 0.00 0.00 0.00 71 1011.2
20240304074554 34 184 2.0 6.0 0.00 0.00 0.00 71 1011.8
20240304073021 35 184 0.0 0.0 0.00 0.00 0.00 68 1012.0
20240304071524 36 184 0.0 2.0 0.00 0.00 0.00 67 1011.9
20240304070014 36 184 1.0 10.0 0.00 0.00 0.00 66 1012.2
20240304064514 36 213 3.0 10.0 0.00 0.00 0.00 65 1012.3
20240304063013 37 239 4.0 11.0 0.00 0.00 0.00 64 1011.5
20240304061507 37 190 3.0 10.0 0.00 0.00 0.00 63 1011.5
20240304060104 38 224 5.0 10.0 0.00 0.00 0.00 62 1011.4
20240304054558 38 218 4.0 11.0 0.00 0.00 0.00 61 1011.2
20240304053103 39 212 5.0 23.0 0.00 0.00 0.00 60 1010.8
20240304051552 40 200 8.0 26.0 0.00 0.00 0.00 61 1010.2
20240304050048 40 230 6.0 20.0 0.00 0.00 0.00 64 1010.2
20240304044544 40 235 7.0 13.0 0.00 0.00 0.00 68 1010.0
20240304043048 40 199 5.0 13.0 0.00 0.00 0.00 69 1009.3
20240304041547 40 196 8.0 11.0 0.00 0.00 0.00 70 1009.2
20240304040033 41 221 7.0 11.0 0.00 0.00 0.00 68 1008.3
20240304034536 41 205 4.0 17.0 0.00 0.00 0.00 69 1008.0
20240304033028 41 184 5.0 17.0 0.00 0.00 0.00 70 1007.9
20240304031526 41 201 5.0 21.0 0.00 0.00 0.00 70 1008.0
20240304030033 42 200 7.0 23.0 0.00 0.00 0.00 69 1007.7
20240304024520 42 239 7.0 17.0 0.00 0.00 0.00 68 1007.6
20240304023020 42 229 7.0 18.0 0.00 0.00 0.00 67 1007.2
20240304021515 43 250 10.0 19.0 0.00 0.00 0.00 66 1006.6
20240304020111 43 208 9.0 29.0 0.00 0.00 0.00 65 1006.1
20240304014542 44 253 11.0 31.0 0.00 0.00 0.00 64 1005.5
20240304013038 44 237 9.0 32.0 0.00 0.00 0.00 65 1005.1